Terminal Aerodrome Forecast
Issued by NWS State College, PA

Home | Current Version | Previous Version | Text Only | Print | Product List | Glossary On
Versions: 1 2 3 4 5 6 7 8 9 10 11 12 13 14 15 16 17 18 19 20 21 22 23 24 25 26 27 28 29 30 31 32 33 34 35 36 37 38 39 40 41 42 43 44 45 46 47 48 49 50
000
FTUS41 KCTP 092128 AAC
TAFMDT
TAF AMD
KMDT 092128Z 0921/1018 00000KT 3/4SM -SN BR BKN006 OVC016
     FM100400 28005KT 2SM -SN BR OVC009
     FM100700 27006KT 4SM -SHSN BR BKN018 OVC030
     FM101000 30008KT P6SM BKN035=

USA.gov is the U.S. government's official web portal to all federal, state and local government web resources and services.